User: anonymous   Login
Location: Unspecified
(43.4680°N, 87.1740°E)
Time: 23:26:10
(UTC+00:00)
Language:

Okean 2 - Orbit

View from above orbital plane
View from above orbital plane
View from above satellite
View from above satellite

Ground track
Ground track

The orbit data is extracted from the following two-line orbital elements,

1 20510U 90018A   21169.54567022  .00000399  00000-0  30050-4 0  9999
2 20510  82.5153 206.4108 0013768  81.6665  32.5359 14.99707433679446
Epoch (UTC): 18 June 2021 13:05:45
Eccentricity: 0.0013768
inclination: 82.5153°
perigee height: 558 km
apogee height: 577 km
right ascension of ascending node: 206.4108°
argument of perigee: 81.6665°
revolutions per day: 14.99707433
mean anomaly at epoch: 32.5359°
orbit number at epoch: 67944

The dashed part of the orbit path shows where the satellite is in the earth's shadow,  

DLR